Satellite: CO-58
Catalog number: 28895
Epoch time:      07157.70148748
Element set:    0745
Inclination:      098.1355 deg
RA of node:       054.7621 deg
Eccentricity:    0.0018280
Arg of perigee:   141.7163 deg
Mean anomaly:     218.5374 deg
Mean motion:   14.59556797 rev/day
Decay rate:       1.42e-06 rev/day^2
Epoch rev:           08556
Checksum:              347

Satellite: NCUBE2
Catalog number: 28897
Epoch time:      07158.66857282
Element set:     271
Inclination:      098.1329 deg
RA of node:       055.6672 deg
Eccentricity:    0.0017545
Arg of perigee:   140.8961 deg
Mean anomaly:     219.3518 deg
Mean motion:   14.59719410 rev/day
Decay rate:       1.31e-06 rev/day^2
Epoch rev:            7798
Checksum:              340

Satellite: NMARS
Catalog number: 29662
Epoch time:      07126.39603970
Element set:     263
Inclination:      051.6121 deg
RA of node:       302.3682 deg
Eccentricity:    0.0004459
Arg of perigee:   252.1654 deg
Mean anomaly:     110.7411 deg
Mean motion:   16.47981436 rev/day
Decay rate:   7.031946e-02 rev/day^2
Epoch rev:            2165
Checksum:              289

Satellite: FCAL
Catalog number: 29667
Epoch time:      07157.44153876
Element set:    0184
Inclination:      051.6319 deg
RA of node:       150.6346 deg
Eccentricity:    0.0013550
Arg of perigee:   309.0462 deg
Mean anomaly:     050.9342 deg
Mean motion:   15.87820248 rev/day
Decay rate:     1.4762e-04 rev/day^2
Epoch rev:           02629
Checksum:              303

Satellite: FALCON
Catalog number: 30776
Epoch time:      07157.68982770
Element set:    0080
Inclination:      035.4347 deg
RA of node:       276.2994 deg
Eccentricity:    0.0001794
Arg of perigee:   348.9874 deg
Mean anomaly:     011.0803 deg
Mean motion:   15.02716037 rev/day
Decay rate:       2.70e-06 rev/day^2
Epoch rev:           01347
Checksum:              305

Satellite: MAST
Catalog number: 31126
Epoch time:      07157.72449841
Element set:    0053
Inclination:      098.0827 deg
RA of node:       231.2075 deg
Eccentricity:    0.0095752
Arg of perigee:   058.4629 deg
Mean anomaly:     302.5849 deg
Mean motion:   14.53344554 rev/day
Decay rate:       3.95e-06 rev/day^2
Epoch rev:           00733
Checksum:              304

Satellite: CAPE1
Catalog number: 31130
Epoch time:      07157.91401091
Element set:    0042
Inclination:      098.0848 deg
RA of node:       231.2731 deg
Eccentricity:    0.0103825
Arg of perigee:   058.1507 deg
Mean anomaly:     302.9730 deg
Mean motion:   14.51856857 rev/day
Decay rate:        9.6e-07 rev/day^2
Epoch rev:           00712
Checksum:              270

/EX





More information about the Keps mailing list